UPS574 EDDK-KSDF

Flight info

Callsign UPS574
Flight time 8h 8m
Altitude 36000
Route NVO2Q NVO Y868 NAVAK DCT DENUT L610 KOPUL Q60 OKSAW DCT TEWXI DCT LIPGO DCT INKUR DCT REVNU DCT ETARI/M079F360 DCT 5630N02000W 57N030W 5630N04000W 5530N05000W DCT KODIK/N0453F360 DCT 52N062W DCT TABRU DCT YBC Q812 MAIRE DCT MITIG Q955 REEDO Q844 VIBRU DCT SYR DCT GONZZ Q29 WWSHR DCT UKATS DLAMP8
Aircraft B763/H-SDE3FGHIM3RWXY/LB1

Departure

Time 2026-04-24 21:44
Airport Cologne Bonn Airport (EDDK)

Arrival

Time 2026-04-25 05:53
Airport Louisville Muhammad Ali International Airport (KSDF)
Time Latitude Longitude Altitude Speed Heading
2026-04-24 21:26 50.86976 7.13665 250 ft 0 kts 227°
2026-04-24 21:37 50.86975 7.13664 250 ft 0 kts 227°
2026-04-24 21:37 50.86985 7.13681 250 ft 3 kts 227°
2026-04-24 21:37 50.87001 7.13708 250 ft 3 kts 227°
2026-04-24 21:37 50.87017 7.13736 250 ft 3 kts 227°
2026-04-24 21:38 50.87033 7.13762 251 ft 1 kts 234°
2026-04-24 21:38 50.87036 7.13776 251 ft 1 kts 286°
2026-04-24 21:38 50.87032 7.13789 251 ft 2 kts 335°
2026-04-24 21:38 50.87009 7.13804 252 ft 3 kts 336°
2026-04-24 21:39 50.86994 7.13818 252 ft 0 kts 320°
2026-04-24 21:41 50.87004 7.13805 252 ft 7 kts 320°
2026-04-24 21:41 50.87082 7.13694 250 ft 20 kts 317°
2026-04-24 21:41 50.87220 7.13493 246 ft 28 kts 317°
2026-04-24 21:41 50.87360 7.13288 246 ft 26 kts 317°
2026-04-24 21:42 50.87490 7.13099 246 ft 24 kts 318°
2026-04-24 21:42 50.87612 7.12927 248 ft 22 kts 316°
2026-04-24 21:42 50.87725 7.12759 249 ft 21 kts 317°
2026-04-24 21:42 50.87839 7.12620 248 ft 20 kts 341°
2026-04-24 21:43 50.87961 7.12674 247 ft 18 kts 43°
2026-04-24 21:43 50.88006 7.12858 245 ft 18 kts 86°
2026-04-24 21:43 50.87962 7.13036 243 ft 17 kts 135°
2026-04-24 21:43 50.87823 7.13234 245 ft 42 kts 138°
2026-04-24 21:44 50.87511 7.13690 246 ft 86 kts 137°
2026-04-24 21:44 50.86923 7.14543 264 ft 144 kts 136°
2026-04-24 21:44 50.86074 7.15766 563 ft 175 kts 136°
2026-04-24 21:44 50.85176 7.17009 1328 ft 173 kts 137°
2026-04-24 21:45 50.84192 7.18166 1876 ft 187 kts 156°
2026-04-24 21:45 50.82894 7.18280 2432 ft 198 kts 199°
2026-04-24 21:45 50.81782 7.16963 2962 ft 213 kts 241°
2026-04-24 21:45 50.81375 7.14701 3485 ft 218 kts 279°
2026-04-24 21:46 50.81757 7.12458 4053 ft 212 kts 294°
2026-04-24 21:46 50.82269 7.10251 4573 ft 220 kts 293°
2026-04-24 21:46 50.82796 7.07919 5108 ft 228 kts 292°
2026-04-24 21:46 50.83325 7.05575 5609 ft 229 kts 292°
2026-04-24 21:47 50.83859 7.03208 6112 ft 231 kts 292°
2026-04-24 21:47 50.84398 7.00816 6616 ft 234 kts 292°
2026-04-24 21:47 50.84928 6.98351 7128 ft 237 kts 287°
2026-04-24 21:47 50.85207 6.95811 7633 ft 238 kts 276°
2026-04-24 21:48 50.85242 6.93178 8138 ft 240 kts 270°
2026-04-24 21:48 50.85143 6.90554 8642 ft 242 kts 266°
2026-04-24 21:48 50.84959 6.87899 9142 ft 243 kts 264°
2026-04-24 21:48 50.84726 6.85279 9632 ft 245 kts 263°
2026-04-24 21:49 50.84450 6.82550 10174 ft 263 kts 262°
2026-04-24 21:49 50.84125 6.79564 10732 ft 287 kts 262°
2026-04-24 21:49 50.83758 6.76323 11287 ft 313 kts 261°
2026-04-24 21:49 50.83351 6.72817 11831 ft 338 kts 261°
2026-04-24 21:50 50.82911 6.69083 12367 ft 364 kts 261°
2026-04-24 21:50 50.82432 6.64976 12903 ft 390 kts 263°
2026-04-24 21:50 50.82267 6.60667 13427 ft 409 kts 273°
2026-04-24 21:50 50.82383 6.56128 13935 ft 417 kts 272°
2026-04-24 21:51 50.82426 6.51527 14427 ft 416 kts 272°
2026-04-24 21:51 50.82487 6.47026 14913 ft 416 kts 272°
2026-04-24 21:51 50.82539 6.42409 15431 ft 417 kts 272°
2026-04-24 21:51 50.82592 6.37827 15918 ft 420 kts 272°
2026-04-24 21:52 50.82643 6.33239 16419 ft 424 kts 271°
2026-04-24 21:52 50.82693 6.28580 16918 ft 426 kts 271°
2026-04-24 21:52 50.82742 6.23905 17416 ft 427 kts 271°
2026-04-24 21:52 50.82789 6.19196 17907 ft 429 kts 271°
2026-04-24 21:53 50.82834 6.14511 18397 ft 432 kts 271°
2026-04-24 21:53 50.82877 6.09775 18890 ft 434 kts 271°
2026-04-24 21:53 50.82920 6.04992 19381 ft 434 kts 271°
2026-04-24 21:53 50.82933 6.00284 19872 ft 435 kts 268°
2026-04-24 21:54 50.82836 5.95488 20365 ft 438 kts 270°
2026-04-24 21:54 50.83096 5.90676 20865 ft 441 kts 279°
2026-04-24 21:54 50.83866 5.85984 21354 ft 443 kts 287°
2026-04-24 21:54 50.84771 5.81380 21850 ft 445 kts 285°
2026-04-24 21:55 50.85664 5.76647 22353 ft 449 kts 285°
2026-04-24 21:55 50.86552 5.71962 22849 ft 451 kts 285°
2026-04-24 21:55 50.87458 5.67185 23350 ft 452 kts 285°
2026-04-24 21:55 50.88348 5.62477 23847 ft 454 kts 285°
2026-04-24 21:56 50.89250 5.57695 24350 ft 458 kts 285°
2026-04-24 21:56 50.90161 5.52850 24861 ft 463 kts 285°
2026-04-24 21:56 50.91086 5.47931 25375 ft 466 kts 285°
2026-04-24 21:56 50.92007 5.43012 25892 ft 468 kts 285°
2026-04-24 21:57 50.92927 5.38094 26408 ft 469 kts 285°
2026-04-24 21:57 50.93852 5.33128 26936 ft 468 kts 285°
2026-04-24 21:57 50.94755 5.28272 27458 ft 465 kts 285°
2026-04-24 21:57 50.95659 5.23397 27986 ft 464 kts 285°
2026-04-24 21:58 50.96572 5.18460 28524 ft 463 kts 285°
2026-04-24 21:58 50.97462 5.13638 29051 ft 463 kts 285°
2026-04-24 21:58 50.98359 5.08761 29585 ft 461 kts 285°
2026-04-24 21:58 50.99252 5.03892 30119 ft 459 kts 285°
2026-04-24 21:59 51.00135 4.99069 30645 ft 457 kts 285°
2026-04-24 21:59 51.01014 4.94252 31162 ft 454 kts 285°
2026-04-24 21:59 51.01888 4.89455 31678 ft 450 kts 285°
2026-04-24 21:59 51.02739 4.84761 32178 ft 446 kts 285°
2026-04-24 22:00 51.03590 4.80063 32694 ft 442 kts 285°
2026-04-24 22:00 51.04431 4.75406 33203 ft 438 kts 285°
2026-04-24 22:00 51.05261 4.70799 33714 ft 433 kts 285°
2026-04-24 22:00 51.06078 4.66257 34217 ft 428 kts 285°
2026-04-24 22:01 51.06878 4.61790 34703 ft 422 kts 285°
2026-04-24 22:01 51.07675 4.57332 35219 ft 418 kts 285°
2026-04-24 22:01 51.08470 4.52871 35319 ft 419 kts 285°
2026-04-24 22:01 51.09258 4.48444 35556 ft 418 kts 285°
2026-04-24 22:02 51.10038 4.44048 35792 ft 417 kts 285°
2026-04-24 22:02 51.10822 4.39624 36024 ft 417 kts 285°
2026-04-24 22:02 51.11608 4.35167 36228 ft 414 kts 285°
2026-04-24 22:03 51.13163 4.26335 36238 ft 420 kts 284°
2026-04-24 22:03 51.14738 4.17336 36240 ft 424 kts 285°
2026-04-24 22:04 51.16322 4.08250 36239 ft 431 kts 284°
2026-04-24 22:04 51.17919 3.99028 36240 ft 439 kts 285°
2026-04-24 22:05 51.19540 3.89627 36233 ft 445 kts 285°
2026-04-24 22:05 51.21176 3.80087 36240 ft 447 kts 285°
2026-04-24 22:06 51.22798 3.70578 36231 ft 446 kts 285°
2026-04-24 22:06 51.24262 3.61029 36235 ft 445 kts 282°
2026-04-24 22:07 51.25537 3.51380 36235 ft 446 kts 282°
2026-04-24 22:07 51.26808 3.41743 36234 ft 445 kts 282°
2026-04-24 22:08 51.28056 3.32092 36238 ft 445 kts 281°
2026-04-24 22:08 51.29295 3.22442 36235 ft 445 kts 281°
2026-04-24 22:09 51.30519 3.12831 36228 ft 445 kts 281°
2026-04-24 22:09 51.31742 3.03165 36232 ft 445 kts 281°
2026-04-24 22:10 51.32957 2.93498 36570 ft 445 kts 281°
2026-04-24 22:10 51.33568 2.88610 36215 ft 449 kts 281°
2026-04-24 22:10 51.34164 2.83820 36170 ft 438 kts 281°
2026-04-24 22:11 51.35347 2.74274 36241 ft 443 kts 281°
2026-04-24 22:11 51.36545 2.64586 36225 ft 445 kts 281°
2026-04-24 22:12 51.37729 2.54933 36226 ft 446 kts 281°
2026-04-24 22:12 51.38911 2.45232 36502 ft 448 kts 281°
2026-04-24 22:12 51.39509 2.40290 35877 ft 448 kts 282°
2026-04-24 22:13 51.40087 2.35502 36421 ft 439 kts 282°
2026-04-24 22:13 51.40667 2.30677 36173 ft 443 kts 281°
2026-04-24 22:13 51.41248 2.25846 36259 ft 442 kts 281°
2026-04-24 22:14 51.42425 2.16226 36229 ft 444 kts 281°
2026-04-24 22:14 51.43599 2.06573 36228 ft 445 kts 281°
2026-04-24 22:15 51.44763 1.96876 36245 ft 445 kts 281°
2026-04-24 22:15 51.45339 1.91990 36065 ft 441 kts 281°
2026-04-24 22:15 51.45902 1.87198 36292 ft 445 kts 281°
2026-04-24 22:16 51.47026 1.77508 36221 ft 444 kts 281°
2026-04-24 22:16 51.48142 1.67822 36235 ft 445 kts 281°
2026-04-24 22:17 51.49255 1.58080 36251 ft 446 kts 281°
2026-04-24 22:17 51.50355 1.48392 36250 ft 446 kts 281°
2026-04-24 22:18 51.51458 1.38591 36250 ft 447 kts 281°
2026-04-24 22:18 51.52551 1.28805 36254 ft 447 kts 280°
2026-04-24 22:19 51.53637 1.19008 36262 ft 447 kts 280°
2026-04-24 22:19 51.54534 1.09183 36265 ft 447 kts 276°
2026-04-24 22:20 51.55153 0.99313 36263 ft 448 kts 276°
2026-04-24 22:20 51.55776 0.89407 36259 ft 449 kts 276°
2026-04-24 22:21 51.56397 0.79452 36263 ft 449 kts 276°
2026-04-24 22:21 51.57008 0.69530 36265 ft 448 kts 276°
2026-04-24 22:22 51.57615 0.59534 36260 ft 449 kts 276°
2026-04-24 22:22 51.58210 0.49609 36271 ft 449 kts 276°
2026-04-24 22:23 51.58797 0.39666 36258 ft 449 kts 276°
2026-04-24 22:23 51.59375 0.29735 36268 ft 450 kts 276°
2026-04-24 22:24 51.59946 0.19762 36268 ft 449 kts 276°
2026-04-24 22:24 51.60509 0.09808 36263 ft 449 kts 276°
2026-04-24 22:25 51.61063 -0.00168 36265 ft 449 kts 276°
2026-04-24 22:25 51.61611 -0.10163 36259 ft 450 kts 276°
2026-04-24 22:26 51.62215 -0.20110 36257 ft 450 kts 276°
2026-04-24 22:26 51.62830 -0.30131 36253 ft 451 kts 276°
2026-04-24 22:27 51.63432 -0.40099 36250 ft 451 kts 276°
2026-04-24 22:27 51.64029 -0.50117 36245 ft 451 kts 276°
2026-04-24 22:28 51.64617 -0.60144 36241 ft 452 kts 276°
2026-04-24 22:28 51.65196 -0.70143 36236 ft 452 kts 275°
2026-04-24 22:29 51.66051 -0.85213 36235 ft 451 kts 275°
2026-04-24 22:29 51.66608 -0.95213 36237 ft 452 kts 275°
2026-04-24 22:30 51.67159 -1.05279 36237 ft 453 kts 275°
2026-04-24 22:30 51.67700 -1.15309 36235 ft 453 kts 275°
2026-04-24 22:31 51.68234 -1.25383 36234 ft 454 kts 275°
2026-04-24 22:31 51.68763 -1.35510 36234 ft 455 kts 275°
2026-04-24 22:32 51.69283 -1.45641 36235 ft 455 kts 275°
2026-04-24 22:32 51.69793 -1.55748 36233 ft 455 kts 275°
2026-04-24 22:33 51.70410 -1.65858 36234 ft 457 kts 281°
2026-04-24 22:33 51.71277 -1.70777 36367 ft 454 kts 290°
2026-04-24 22:33 51.72571 -1.75338 36497 ft 453 kts 295°
2026-04-24 22:34 51.73987 -1.79916 36179 ft 458 kts 295°
2026-04-24 22:34 51.75373 -1.84426 36459 ft 452 kts 295°
2026-04-24 22:34 51.76785 -1.89016 35906 ft 458 kts 295°
2026-04-24 22:34 51.78175 -1.93534 36597 ft 449 kts 295°
2026-04-24 22:35 51.79584 -1.98120 35907 ft 459 kts 295°
2026-04-24 22:35 51.80992 -2.02595 36300 ft 449 kts 298°
2026-04-24 22:35 51.82616 -2.06947 36186 ft 460 kts 301°
2026-04-24 22:35 51.84313 -2.11342 36277 ft 457 kts 300°
2026-04-24 22:36 51.87657 -2.20048 36240 ft 461 kts 300°
2026-04-24 22:36 51.91037 -2.28871 36232 ft 463 kts 300°
2026-04-24 22:37 51.94408 -2.37699 36228 ft 464 kts 301°
2026-04-24 22:37 51.97798 -2.46606 36226 ft 463 kts 301°
2026-04-24 22:38 52.01146 -2.55435 36227 ft 463 kts 301°
2026-04-24 22:38 52.04505 -2.64323 36226 ft 463 kts 301°
2026-04-24 22:39 52.07859 -2.73226 36228 ft 465 kts 300°
2026-04-24 22:39 52.11201 -2.82132 36224 ft 465 kts 300°
2026-04-24 22:40 52.14561 -2.91118 36224 ft 466 kts 300°
2026-04-24 22:40 52.17917 -3.00122 36222 ft 467 kts 300°
2026-04-24 22:41 52.21259 -3.09122 36220 ft 467 kts 300°
2026-04-24 22:41 52.24599 -3.18146 36218 ft 467 kts 300°
2026-04-24 22:42 52.27934 -3.27191 36220 ft 468 kts 300°
2026-04-24 22:42 52.31267 -3.36264 35959 ft 468 kts 300°
2026-04-24 22:43 52.32946 -3.40847 36078 ft 466 kts 300°
2026-04-24 22:43 52.34584 -3.45325 36223 ft 464 kts 300°
2026-04-24 22:43 52.37899 -3.54415 36212 ft 468 kts 300°
2026-04-24 22:44 52.41217 -3.63544 36217 ft 471 kts 300°
2026-04-24 22:44 52.44542 -3.72726 36213 ft 472 kts 298°
2026-04-24 22:45 52.47879 -3.81973 36213 ft 473 kts 299°
2026-04-24 22:45 52.51202 -3.91218 36214 ft 474 kts 298°
2026-04-24 22:46 52.54550 -4.00565 36213 ft 475 kts 298°
2026-04-24 22:46 52.57863 -4.09850 36209 ft 475 kts 298°
2026-04-24 22:47 52.61178 -4.19176 36207 ft 475 kts 298°
2026-04-24 22:47 52.64505 -4.28572 36216 ft 476 kts 298°
2026-04-24 22:48 52.67820 -4.37964 36218 ft 477 kts 298°
2026-04-24 22:48 52.71118 -4.47347 36214 ft 477 kts 298°
2026-04-24 22:49 52.74430 -4.56806 36215 ft 478 kts 298°
2026-04-24 22:49 52.77722 -4.66241 36215 ft 478 kts 298°
2026-04-24 22:50 52.81021 -4.75735 36217 ft 478 kts 298°
2026-04-24 22:50 52.84338 -4.85311 36217 ft 479 kts 297°
2026-04-24 22:51 52.87626 -4.94846 36219 ft 479 kts 297°
2026-04-24 22:51 52.90907 -5.04397 36217 ft 480 kts 298°
2026-04-24 22:52 52.94195 -5.14005 36216 ft 482 kts 297°
2026-04-24 22:52 52.97467 -5.23602 36215 ft 481 kts 298°
2026-04-24 22:53 53.00745 -5.33253 36216 ft 483 kts 297°
2026-04-24 22:53 53.04024 -5.42949 36217 ft 483 kts 297°
2026-04-24 22:54 53.07191 -5.52758 36220 ft 483 kts 294°
2026-04-24 22:54 53.10136 -5.62787 36215 ft 485 kts 294°
2026-04-24 22:55 53.13067 -5.72822 36213 ft 485 kts 294°
2026-04-24 22:55 53.15987 -5.82875 36213 ft 486 kts 294°
2026-04-24 22:56 53.18921 -5.93022 36211 ft 487 kts 294°
2026-04-24 22:56 53.21843 -6.03177 36217 ft 487 kts 294°
2026-04-24 22:57 53.24761 -6.13358 36202 ft 489 kts 294°
2026-04-24 22:57 53.27673 -6.23565 36191 ft 490 kts 294°
2026-04-24 22:58 53.30579 -6.33796 36193 ft 491 kts 294°
2026-04-24 22:58 53.33488 -6.44084 36198 ft 491 kts 294°
2026-04-24 22:59 53.36384 -6.54369 36204 ft 490 kts 294°
2026-04-24 23:00 53.40734 -6.69906 36208 ft 493 kts 292°
2026-04-24 23:00 53.43618 -6.80263 36212 ft 493 kts 292°
2026-04-24 23:01 53.46483 -6.90597 36206 ft 493 kts 293°
2026-04-24 23:01 53.49372 -7.01064 36198 ft 493 kts 292°
2026-04-24 23:02 53.52235 -7.11487 36199 ft 495 kts 293°
2026-04-24 23:02 53.55083 -7.21902 36200 ft 497 kts 293°
2026-04-24 23:03 53.57949 -7.32431 36198 ft 497 kts 293°
2026-04-24 23:03 53.60969 -7.42884 36198 ft 499 kts 298°
2026-04-24 23:04 53.64397 -7.52956 36196 ft 499 kts 298°
2026-04-24 23:04 53.67797 -7.63083 36192 ft 500 kts 298°
2026-04-24 23:05 53.71199 -7.73285 36186 ft 500 kts 297°
2026-04-24 23:05 53.74586 -7.83492 36190 ft 500 kts 297°
2026-04-24 23:06 53.77959 -7.93701 36190 ft 501 kts 297°
2026-04-24 23:06 53.81339 -8.03974 36182 ft 502 kts 297°
2026-04-24 23:07 53.84705 -8.14246 36183 ft 502 kts 297°
2026-04-24 23:07 53.88065 -8.24547 36188 ft 502 kts 297°
2026-04-24 23:08 53.91414 -8.34857 36189 ft 502 kts 297°
2026-04-24 23:08 53.94759 -8.45200 36186 ft 503 kts 297°
2026-04-24 23:09 53.98120 -8.55634 36180 ft 505 kts 297°
2026-04-24 23:09 54.01467 -8.66073 36181 ft 505 kts 296°
2026-04-24 23:10 54.04805 -8.76526 36179 ft 505 kts 296°
2026-04-24 23:10 54.08115 -8.86936 36177 ft 505 kts 296°
2026-04-24 23:11 54.11435 -8.97424 36165 ft 504 kts 296°
2026-04-24 23:11 54.14748 -9.07938 36165 ft 506 kts 296°
2026-04-24 23:12 54.18062 -9.18498 36161 ft 506 kts 296°
2026-04-24 23:12 54.21366 -9.29076 36163 ft 508 kts 296°
2026-04-24 23:13 54.24653 -9.39640 36159 ft 509 kts 296°
2026-04-24 23:13 54.27949 -9.50286 36154 ft 509 kts 296°
2026-04-24 23:14 54.31236 -9.60945 36150 ft 509 kts 296°
2026-04-24 23:14 54.34515 -9.71628 36143 ft 510 kts 295°
2026-04-24 23:15 54.37797 -9.82369 36147 ft 510 kts 295°
2026-04-24 23:15 54.41076 -9.93149 36153 ft 511 kts 295°
2026-04-24 23:16 54.44325 -10.03877 36140 ft 510 kts 295°
2026-04-24 23:16 54.47379 -10.14857 36151 ft 508 kts 290°
2026-04-24 23:17 54.50046 -10.26006 36156 ft 510 kts 290°
2026-04-24 23:17 54.52713 -10.37276 36153 ft 511 kts 290°
2026-04-24 23:18 54.55365 -10.48586 36158 ft 512 kts 290°
2026-04-24 23:18 54.58013 -10.59948 36141 ft 511 kts 290°
2026-04-24 23:19 54.60632 -10.71254 36140 ft 512 kts 289°
2026-04-24 23:19 54.63266 -10.82685 36144 ft 514 kts 289°
2026-04-24 23:20 54.65884 -10.94110 36143 ft 513 kts 289°
2026-04-24 23:20 54.68474 -11.05471 36144 ft 513 kts 289°
2026-04-24 23:21 54.71069 -11.16920 36143 ft 514 kts 289°
2026-04-24 23:21 54.73661 -11.28414 36136 ft 515 kts 289°
2026-04-24 23:22 54.76234 -11.39889 36138 ft 517 kts 289°
2026-04-24 23:22 54.78818 -11.51477 36144 ft 518 kts 290°
2026-04-24 23:23 54.81386 -11.63054 36130 ft 516 kts 289°
2026-04-24 23:23 54.83943 -11.74649 36124 ft 517 kts 289°
2026-04-24 23:24 54.86492 -11.86271 36129 ft 517 kts 289°
2026-04-24 23:24 54.89030 -11.97910 36129 ft 518 kts 288°
2026-04-24 23:25 54.91558 -12.09569 36139 ft 520 kts 288°
2026-04-24 23:25 54.94080 -12.21266 36140 ft 519 kts 288°
2026-04-24 23:26 54.96590 -12.32973 36139 ft 520 kts 288°
2026-04-24 23:26 54.99097 -12.44738 36146 ft 519 kts 289°
2026-04-24 23:27 55.01582 -12.56459 36148 ft 521 kts 289°
2026-04-24 23:27 55.04079 -12.68314 36150 ft 523 kts 288°
2026-04-24 23:28 55.06548 -12.80102 36123 ft 522 kts 288°
2026-04-24 23:28 55.09035 -12.92040 36124 ft 523 kts 288°
2026-04-24 23:29 55.11501 -13.03955 36139 ft 524 kts 288°
2026-04-24 23:29 55.13984 -13.16024 36095 ft 522 kts 288°
2026-04-24 23:30 55.16427 -13.27974 36128 ft 523 kts 288°
2026-04-24 23:30 55.18859 -13.39934 36142 ft 523 kts 288°
2026-04-24 23:31 55.21267 -13.51852 36119 ft 523 kts 288°
2026-04-24 23:31 55.23672 -13.63825 36119 ft 523 kts 288°
2026-04-24 23:32 55.26064 -13.75800 36113 ft 523 kts 287°
2026-04-24 23:32 55.28449 -13.87822 36107 ft 524 kts 287°
2026-04-24 23:33 55.30819 -13.99844 36113 ft 525 kts 287°
2026-04-24 23:33 55.33226 -14.12129 36115 ft 524 kts 287°
2026-04-24 23:34 55.35578 -14.24203 36118 ft 525 kts 288°
2026-04-24 23:34 55.37925 -14.36328 36117 ft 525 kts 288°
2026-04-24 23:35 55.40255 -14.48445 36125 ft 524 kts 288°
2026-04-24 23:35 55.42582 -14.60624 36108 ft 523 kts 287°
2026-04-24 23:36 55.44878 -14.72716 36096 ft 525 kts 287°
2026-04-24 23:36 55.47163 -14.84828 36132 ft 523 kts 287°
2026-04-24 23:37 55.49438 -14.96964 36095 ft 524 kts 287°
2026-04-24 23:37 55.53351 -15.14908 36126 ft 527 kts 290°
2026-04-24 23:38 55.56059 -15.26992 36149 ft 527 kts 291°
2026-04-24 23:38 55.58756 -15.39101 36145 ft 526 kts 291°
2026-04-24 23:39 55.61457 -15.51321 36142 ft 526 kts 290°
2026-04-24 23:39 55.64103 -15.63362 36134 ft 528 kts 291°
2026-04-24 23:40 55.66743 -15.75447 36137 ft 528 kts 290°
2026-04-24 23:40 55.69465 -15.87975 36106 ft 529 kts 290°
2026-04-24 23:41 55.72160 -16.00460 36092 ft 531 kts 290°
2026-04-24 23:41 55.74764 -16.12598 36106 ft 530 kts 290°
2026-04-24 23:42 55.77365 -16.24797 36108 ft 530 kts 290°
2026-04-24 23:42 55.79958 -16.37024 36126 ft 531 kts 290°
2026-04-24 23:43 55.82539 -16.49269 36105 ft 531 kts 290°
2026-04-24 23:43 55.85106 -16.61528 36123 ft 533 kts 290°
2026-04-24 23:44 55.87669 -16.73838 36127 ft 533 kts 289°
2026-04-24 23:44 55.90224 -16.86179 36112 ft 532 kts 289°
2026-04-24 23:45 55.92764 -16.98532 36112 ft 532 kts 289°
2026-04-24 23:45 55.95284 -17.10865 36120 ft 533 kts 289°
2026-04-24 23:46 55.97800 -17.23250 36102 ft 535 kts 289°
2026-04-24 23:46 56.00312 -17.35692 36102 ft 534 kts 289°
2026-04-24 23:47 56.02802 -17.48105 36098 ft 534 kts 289°
2026-04-24 23:47 56.05296 -17.60616 36088 ft 534 kts 289°
2026-04-24 23:48 56.07763 -17.73067 36107 ft 534 kts 288°
2026-04-24 23:48 56.10225 -17.85584 36087 ft 534 kts 288°
2026-04-24 23:49 56.12680 -17.98139 36084 ft 534 kts 289°
2026-04-24 23:49 56.15115 -18.10667 36065 ft 534 kts 288°
2026-04-24 23:50 56.17538 -18.23221 36104 ft 534 kts 288°
2026-04-24 23:50 56.19945 -18.35783 36098 ft 533 kts 289°
2026-04-24 23:51 56.22338 -18.48338 36069 ft 532 kts 288°
2026-04-24 23:51 56.24729 -18.60969 36099 ft 533 kts 289°
2026-04-24 23:52 56.27160 -18.73901 36091 ft 532 kts 288°
2026-04-24 23:52 56.29505 -18.86460 36081 ft 532 kts 288°
2026-04-24 23:53 56.31859 -18.99153 36072 ft 534 kts 288°
2026-04-24 23:53 56.34203 -19.11872 36073 ft 534 kts 288°
2026-04-24 23:54 56.36537 -19.24630 36085 ft 532 kts 288°
2026-04-24 23:54 56.38834 -19.37271 36070 ft 533 kts 288°
2026-04-24 23:55 56.41116 -19.49910 36065 ft 534 kts 288°
2026-04-24 23:55 56.43386 -19.62577 36085 ft 533 kts 288°
2026-04-24 23:56 56.45642 -19.75239 36075 ft 532 kts 287°
2026-04-24 23:56 56.47890 -19.87958 36068 ft 534 kts 287°
2026-04-24 23:57 56.49889 -20.00796 36098 ft 532 kts 279°
2026-04-24 23:57 56.51196 -20.13955 36061 ft 533 kts 278°
2026-04-24 23:58 56.52432 -20.27264 36061 ft 534 kts 278°
2026-04-24 23:58 56.53614 -20.40462 36065 ft 534 kts 278°
2026-04-24 23:59 56.54771 -20.53651 36073 ft 532 kts 278°
2026-04-24 23:59 56.55909 -20.66859 36073 ft 535 kts 277°
2026-04-25 00:00 56.57038 -20.80117 36044 ft 534 kts 277°
2026-04-25 00:00 56.58150 -20.93377 36056 ft 535 kts 277°
2026-04-25 00:01 56.59250 -21.06665 36061 ft 535 kts 277°
2026-04-25 00:01 56.60336 -21.19971 36066 ft 535 kts 277°
2026-04-25 00:02 56.61406 -21.33252 36043 ft 534 kts 277°
2026-04-25 00:02 56.62460 -21.46522 36069 ft 535 kts 277°
2026-04-25 00:03 56.63504 -21.59862 36073 ft 534 kts 277°
2026-04-25 00:03 56.64533 -21.73186 36043 ft 535 kts 276°
2026-04-25 00:04 56.65546 -21.86502 36048 ft 536 kts 276°
2026-04-25 00:04 56.66547 -21.99857 36049 ft 537 kts 276°
2026-04-25 00:05 56.67532 -22.13187 36063 ft 535 kts 276°
2026-04-25 00:05 56.68503 -22.26527 36049 ft 536 kts 276°
2026-04-25 00:06 56.69470 -22.40013 36039 ft 536 kts 276°
2026-04-25 00:06 56.70409 -22.53328 36026 ft 536 kts 276°
2026-04-25 00:07 56.71342 -22.66769 36032 ft 537 kts 275°
2026-04-25 00:07 56.72260 -22.80202 36030 ft 538 kts 275°
2026-04-25 00:08 56.73165 -22.93653 36031 ft 537 kts 275°
2026-04-25 00:08 56.74052 -23.07082 36022 ft 537 kts 275°
2026-04-25 00:09 56.74924 -23.20496 36030 ft 539 kts 276°
2026-04-25 00:09 56.75793 -23.34082 36040 ft 539 kts 275°
2026-04-25 00:10 56.76639 -23.47562 36020 ft 538 kts 275°
2026-04-25 00:10 56.77469 -23.61015 36000 ft 539 kts 275°
2026-04-25 00:11 56.78285 -23.74477 36014 ft 537 kts 275°
2026-04-25 00:11 56.79087 -23.87973 36013 ft 538 kts 274°
2026-04-25 00:12 56.79877 -24.01512 36033 ft 538 kts 274°
2026-04-25 00:12 56.80264 -24.08227 36353 ft 539 kts 274°
2026-04-25 00:12 56.80654 -24.15081 36147 ft 543 kts 275°
2026-04-25 00:13 56.81040 -24.21915 36035 ft 540 kts 275°
2026-04-25 00:13 56.81413 -24.28576 36218 ft 531 kts 275°
2026-04-25 00:13 56.81783 -24.35283 36031 ft 539 kts 275°
2026-04-25 00:13 56.82158 -24.42105 36041 ft 540 kts 274°
2026-04-25 00:14 56.82889 -24.55674 36024 ft 540 kts 274°
2026-04-25 00:14 56.83606 -24.69226 36039 ft 541 kts 273°
2026-04-25 00:15 56.84309 -24.82806 36006 ft 540 kts 273°
2026-04-25 00:15 56.84998 -24.96422 36032 ft 541 kts 273°
2026-04-25 00:16 56.85674 -25.10070 36026 ft 538 kts 274°
2026-04-25 00:16 56.86330 -25.23624 36017 ft 539 kts 274°
2026-04-25 00:17 56.86973 -25.37217 36026 ft 540 kts 273°
2026-04-25 00:17 56.87600 -25.50790 36029 ft 538 kts 274°
2026-04-25 00:18 56.88211 -25.64332 36054 ft 539 kts 274°
2026-04-25 00:18 56.88810 -25.77910 36027 ft 537 kts 272°
2026-04-25 00:19 56.89392 -25.91484 36030 ft 537 kts 272°
2026-04-25 00:19 56.89961 -26.05067 36044 ft 537 kts 272°
2026-04-25 00:20 56.90512 -26.18590 36036 ft 537 kts 272°
2026-04-25 00:20 56.91051 -26.32202 36017 ft 537 kts 272°
2026-04-25 00:21 56.91573 -26.45764 35991 ft 538 kts 272°
2026-04-25 00:21 56.92083 -26.59373 36008 ft 538 kts 272°
2026-04-25 00:22 56.92576 -26.72913 36030 ft 536 kts 271°
2026-04-25 00:22 56.93055 -26.86509 35999 ft 538 kts 271°
2026-04-25 00:23 56.93518 -27.00045 36014 ft 539 kts 271°
2026-04-25 00:23 56.93969 -27.13689 36038 ft 536 kts 271°
2026-04-25 00:24 56.94404 -27.27285 35999 ft 536 kts 271°
2026-04-25 00:24 56.94824 -27.40876 36012 ft 537 kts 271°
2026-04-25 00:25 56.95227 -27.54396 36016 ft 538 kts 271°
2026-04-25 00:25 56.95618 -27.68033 36009 ft 538 kts 271°
2026-04-25 00:26 56.95994 -27.81623 36008 ft 536 kts 271°
2026-04-25 00:26 56.96355 -27.95231 36003 ft 539 kts 271°
2026-04-25 00:27 56.96702 -28.08870 36030 ft 538 kts 271°
2026-04-25 00:27 56.97034 -28.22495 36015 ft 537 kts 270°
2026-04-25 00:28 56.97351 -28.36116 36002 ft 537 kts 270°
2026-04-25 00:28 56.97652 -28.49669 36004 ft 537 kts 270°
2026-04-25 00:29 56.97939 -28.63355 36005 ft 537 kts 271°
2026-04-25 00:29 56.98211 -28.76916 35959 ft 536 kts 270°
2026-04-25 00:30 56.98468 -28.90490 36000 ft 536 kts 270°
2026-04-25 00:30 56.98709 -29.04065 35986 ft 536 kts 270°
2026-04-25 00:31 56.98937 -29.17683 35994 ft 536 kts 270°
2026-04-25 00:31 56.99150 -29.31239 35999 ft 536 kts 270°
2026-04-25 00:32 56.99349 -29.44890 35993 ft 537 kts 270°
2026-04-25 00:32 56.99532 -29.58482 35970 ft 536 kts 270°
2026-04-25 00:33 56.99701 -29.72059 35985 ft 535 kts 269°
2026-04-25 00:33 56.99854 -29.85662 35977 ft 536 kts 269°
2026-04-25 00:34 56.99960 -29.99276 36003 ft 535 kts 267°
2026-04-25 00:34 56.99851 -30.12771 35988 ft 535 kts 267°
2026-04-25 00:35 56.99712 -30.26347 35992 ft 534 kts 267°
2026-04-25 00:35 56.99549 -30.39914 35991 ft 535 kts 267°
2026-04-25 00:36 56.99369 -30.53569 35988 ft 537 kts 267°
2026-04-25 00:36 56.99173 -30.67145 36001 ft 535 kts 266°
2026-04-25 00:37 56.98964 -30.80642 35968 ft 535 kts 266°
2026-04-25 00:37 56.98738 -30.94202 35986 ft 535 kts 266°
2026-04-25 00:38 56.98498 -31.07813 35976 ft 537 kts 266°
2026-04-25 00:38 56.98243 -31.21412 35982 ft 536 kts 266°
2026-04-25 00:39 56.97972 -31.34990 35999 ft 534 kts 266°
2026-04-25 00:39 56.97689 -31.48540 35993 ft 535 kts 266°
2026-04-25 00:40 56.97390 -31.62077 35970 ft 535 kts 266°
2026-04-25 00:40 56.97077 -31.75651 35977 ft 535 kts 265°
2026-04-25 00:41 56.96747 -31.89230 35975 ft 536 kts 265°
2026-04-25 00:41 56.96404 -32.02792 35967 ft 536 kts 265°
2026-04-25 00:42 56.96047 -32.16336 35988 ft 535 kts 265°
2026-04-25 00:42 56.95674 -32.29902 35971 ft 535 kts 265°
2026-04-25 00:43 56.95291 -32.43368 35987 ft 534 kts 265°
2026-04-25 00:43 56.94891 -32.56868 35989 ft 533 kts 265°
2026-04-25 00:44 56.94476 -32.70383 35982 ft 534 kts 264°
2026-04-25 00:44 56.94044 -32.83924 35965 ft 534 kts 265°
2026-04-25 00:45 56.93600 -32.97425 35975 ft 535 kts 265°
2026-04-25 00:45 56.93140 -33.10973 36003 ft 534 kts 265°
2026-04-25 00:46 56.92668 -33.24441 35980 ft 532 kts 265°
2026-04-25 00:47 56.91933 -33.44636 35971 ft 534 kts 265°
2026-04-25 00:47 56.91423 -33.58133 35986 ft 533 kts 265°
2026-04-25 00:48 56.90902 -33.71558 35968 ft 530 kts 264°
2026-04-25 00:48 56.90366 -33.84945 35953 ft 532 kts 264°
2026-04-25 00:49 56.89815 -33.98374 35964 ft 532 kts 264°
2026-04-25 00:49 56.89250 -34.11806 35968 ft 532 kts 264°
2026-04-25 00:50 56.88674 -34.25127 35962 ft 530 kts 264°
2026-04-25 00:50 56.88079 -34.38569 35948 ft 529 kts 264°
2026-04-25 00:51 56.87478 -34.51827 35976 ft 528 kts 264°
2026-04-25 00:51 56.86857 -34.65203 35957 ft 529 kts 263°
2026-04-25 00:52 56.86227 -34.78474 35953 ft 528 kts 263°
2026-04-25 00:52 56.85577 -34.91832 35940 ft 527 kts 263°
2026-04-25 00:53 56.84921 -35.05057 35956 ft 527 kts 263°
2026-04-25 00:53 56.84247 -35.18339 35950 ft 525 kts 263°
2026-04-25 00:54 56.83561 -35.31559 35954 ft 527 kts 263°
2026-04-25 00:54 56.82861 -35.44789 35951 ft 527 kts 263°
2026-04-25 00:55 56.82148 -35.58019 35951 ft 526 kts 263°
2026-04-25 00:55 56.81421 -35.71218 35939 ft 526 kts 262°
2026-04-25 00:56 56.80682 -35.84383 35953 ft 525 kts 262°
2026-04-25 00:56 56.79927 -35.97572 35922 ft 524 kts 262°
2026-04-25 00:57 56.79160 -36.10729 35930 ft 524 kts 262°
2026-04-25 00:57 56.78379 -36.23890 35946 ft 524 kts 262°
2026-04-25 00:58 56.77584 -36.37039 35947 ft 525 kts 262°
2026-04-25 00:58 56.76774 -36.50212 35912 ft 524 kts 262°
2026-04-25 00:59 56.75960 -36.63221 35941 ft 522 kts 262°
2026-04-25 00:59 56.75120 -36.76396 35947 ft 523 kts 262°
2026-04-25 01:00 56.74276 -36.89443 35920 ft 523 kts 262°
2026-04-25 01:00 56.73416 -37.02505 35933 ft 524 kts 262°
2026-04-25 01:01 56.72537 -37.15648 35934 ft 523 kts 262°
2026-04-25 01:01 56.71646 -37.28758 35926 ft 524 kts 262°
2026-04-25 01:02 56.70748 -37.41762 35942 ft 523 kts 262°
2026-04-25 01:02 56.69830 -37.54840 35951 ft 522 kts 262°
2026-04-25 01:03 56.68902 -37.67880 35943 ft 522 kts 261°
2026-04-25 01:03 56.67962 -37.80878 35937 ft 522 kts 261°
2026-04-25 01:04 56.67005 -37.93924 35953 ft 522 kts 261°
2026-04-25 01:04 56.66036 -38.06924 35949 ft 523 kts 261°
2026-04-25 01:05 56.65047 -38.20018 35946 ft 522 kts 261°
2026-04-25 01:05 56.64055 -38.32969 35943 ft 522 kts 261°
2026-04-25 01:06 56.63047 -38.45945 35942 ft 522 kts 261°
2026-04-25 01:06 56.62022 -38.58959 35943 ft 522 kts 261°
2026-04-25 01:07 56.60983 -38.71962 35926 ft 521 kts 260°
2026-04-25 01:07 56.59936 -38.84886 35923 ft 522 kts 261°
2026-04-25 01:08 56.58873 -38.97845 35915 ft 522 kts 261°
2026-04-25 01:08 56.57795 -39.10821 35931 ft 523 kts 260°
2026-04-25 01:09 56.56704 -39.23767 35923 ft 522 kts 260°
2026-04-25 01:09 56.55603 -39.36675 35924 ft 521 kts 260°
2026-04-25 01:10 56.54483 -39.49641 35926 ft 522 kts 261°
2026-04-25 01:10 56.53357 -39.62510 35922 ft 522 kts 260°
2026-04-25 01:11 56.52212 -39.75448 35906 ft 522 kts 259°
2026-04-25 01:11 56.51048 -39.88415 35903 ft 522 kts 259°
2026-04-25 01:12 56.49899 -40.01356 35900 ft 522 kts 262°
2026-04-25 01:12 56.49153 -40.14315 35920 ft 523 kts 263°
2026-04-25 01:13 56.48387 -40.27333 35937 ft 522 kts 263°
2026-04-25 01:13 56.47603 -40.40349 35943 ft 521 kts 263°
2026-04-25 01:14 56.46804 -40.53363 35945 ft 523 kts 263°
2026-04-25 01:14 56.45996 -40.66275 35947 ft 522 kts 262°
2026-04-25 01:15 56.45170 -40.79250 35939 ft 522 kts 262°
2026-04-25 01:15 56.44331 -40.92203 35925 ft 522 kts 262°
2026-04-25 01:16 56.43477 -41.05180 35932 ft 523 kts 263°
2026-04-25 01:16 56.42606 -41.18207 35932 ft 521 kts 262°
2026-04-25 01:17 56.41730 -41.31094 35936 ft 522 kts 262°
2026-04-25 01:17 56.40833 -41.44089 35926 ft 522 kts 263°
2026-04-25 01:18 56.39932 -41.56950 35921 ft 521 kts 262°
2026-04-25 01:18 56.39010 -41.69918 35935 ft 521 kts 262°
2026-04-25 01:19 56.38076 -41.82836 35925 ft 521 kts 262°
2026-04-25 01:19 56.37135 -41.95674 35916 ft 522 kts 262°
2026-04-25 01:20 56.36177 -42.08535 35924 ft 521 kts 262°
2026-04-25 01:20 56.35206 -42.21416 35940 ft 521 kts 262°
2026-04-25 01:21 56.34222 -42.34266 35956 ft 519 kts 262°
2026-04-25 01:21 56.33223 -42.47140 35937 ft 520 kts 262°
2026-04-25 01:22 56.32212 -42.59994 35937 ft 521 kts 262°
2026-04-25 01:22 56.31191 -42.72795 35930 ft 519 kts 261°
2026-04-25 01:23 56.30153 -42.85634 35945 ft 521 kts 261°
2026-04-25 01:23 56.29106 -42.98406 35945 ft 519 kts 261°
2026-04-25 01:24 56.28043 -43.11213 35939 ft 520 kts 261°
2026-04-25 01:24 56.26965 -43.24041 35951 ft 520 kts 261°
2026-04-25 01:25 56.25874 -43.36855 35957 ft 520 kts 261°
2026-04-25 01:25 56.24772 -43.49633 35941 ft 518 kts 261°
2026-04-25 01:26 56.23663 -43.62326 35938 ft 519 kts 261°
2026-04-25 01:26 56.22532 -43.75131 35941 ft 519 kts 260°
2026-04-25 01:27 56.21398 -43.87803 35953 ft 519 kts 260°
2026-04-25 01:27 56.20240 -44.00593 35945 ft 518 kts 260°
2026-04-25 01:28 56.18489 -44.19644 35953 ft 519 kts 260°
2026-04-25 01:28 56.17303 -44.32367 35944 ft 519 kts 260°
2026-04-25 01:29 56.16106 -44.45050 35945 ft 517 kts 260°
2026-04-25 01:29 56.14893 -44.57756 35929 ft 519 kts 260°
2026-04-25 01:30 56.13674 -44.70394 35936 ft 519 kts 259°
2026-04-25 01:30 56.12432 -44.83113 35948 ft 519 kts 259°
2026-04-25 01:31 56.11188 -44.95726 35940 ft 518 kts 259°
2026-04-25 01:31 56.09918 -45.08456 35944 ft 519 kts 259°
2026-04-25 01:32 56.08646 -45.21065 35930 ft 518 kts 259°
2026-04-25 01:32 56.07355 -45.33731 35933 ft 519 kts 259°
2026-04-25 01:33 56.06054 -45.46359 35939 ft 519 kts 259°
2026-04-25 01:33 56.04738 -45.58986 35937 ft 520 kts 259°
2026-04-25 01:34 56.03411 -45.71607 35924 ft 518 kts 258°
2026-04-25 01:34 56.02073 -45.84190 35952 ft 518 kts 258°
2026-04-25 01:35 56.00720 -45.96789 35961 ft 518 kts 258°
2026-04-25 01:35 55.99357 -46.09347 35958 ft 519 kts 259°
2026-04-25 01:36 55.97977 -46.21940 35953 ft 520 kts 258°
2026-04-25 01:36 55.96580 -46.34557 35956 ft 518 kts 258°
2026-04-25 01:37 55.95176 -46.47112 35959 ft 518 kts 258°
2026-04-25 01:37 55.93765 -46.59611 35951 ft 518 kts 259°
2026-04-25 01:38 55.92337 -46.72143 35952 ft 518 kts 258°
2026-04-25 01:38 55.90898 -46.84652 35949 ft 517 kts 258°
2026-04-25 01:39 55.89451 -46.97103 35939 ft 516 kts 258°
2026-04-25 01:39 55.87992 -47.09536 35944 ft 517 kts 258°
2026-04-25 01:40 55.86513 -47.22032 35942 ft 517 kts 258°
2026-04-25 01:40 55.85030 -47.34448 35943 ft 516 kts 258°
2026-04-25 01:41 55.83533 -47.46859 35950 ft 516 kts 258°
2026-04-25 01:41 55.82019 -47.59298 35948 ft 516 kts 258°
2026-04-25 01:42 55.80497 -47.71701 35945 ft 516 kts 257°
2026-04-25 01:42 55.78964 -47.84071 35953 ft 515 kts 257°
2026-04-25 01:43 55.77416 -47.96458 35949 ft 515 kts 257°
2026-04-25 01:43 55.75857 -48.08819 35949 ft 515 kts 257°
2026-04-25 01:44 55.74289 -48.21150 35954 ft 515 kts 257°
2026-04-25 01:44 55.72707 -48.33472 35950 ft 515 kts 257°
2026-04-25 01:45 55.71117 -48.45763 35957 ft 514 kts 258°
2026-04-25 01:45 55.69520 -48.58004 35954 ft 514 kts 258°
2026-04-25 01:46 55.67902 -48.70295 35953 ft 514 kts 257°
2026-04-25 01:46 55.66279 -48.82523 35950 ft 514 kts 257°
2026-04-25 01:47 55.64629 -48.94850 35965 ft 514 kts 257°
2026-04-25 01:47 55.62983 -49.07054 35953 ft 513 kts 257°
2026-04-25 01:48 55.61328 -49.19221 35966 ft 512 kts 257°
2026-04-25 01:48 55.59657 -49.31399 35966 ft 513 kts 257°
2026-04-25 01:49 55.57967 -49.43621 35969 ft 514 kts 257°
2026-04-25 01:49 55.56269 -49.55808 35960 ft 512 kts 257°
2026-04-25 01:50 55.54568 -49.67917 35954 ft 513 kts 256°
2026-04-25 01:50 55.52845 -49.80087 35960 ft 513 kts 256°
2026-04-25 01:51 55.51115 -49.92208 35955 ft 511 kts 256°
2026-04-25 01:51 55.48811 -50.03976 35963 ft 512 kts 249°
2026-04-25 01:52 55.46148 -50.15613 35959 ft 513 kts 248°
2026-04-25 01:52 55.43408 -50.27139 35961 ft 513 kts 248°
2026-04-25 01:53 55.40619 -50.38667 35961 ft 513 kts 247°
2026-04-25 01:53 55.37838 -50.50055 35969 ft 511 kts 247°
2026-04-25 01:54 55.35027 -50.61480 35957 ft 511 kts 247°
2026-04-25 01:54 55.32194 -50.72931 35965 ft 512 kts 246°
2026-04-25 01:55 55.29367 -50.84295 35961 ft 512 kts 246°
2026-04-25 01:55 55.26514 -50.95702 35948 ft 512 kts 246°
2026-04-25 01:56 55.23667 -51.07029 35955 ft 512 kts 247°
2026-04-25 01:56 55.20798 -51.18388 35957 ft 511 kts 246°
2026-04-25 01:57 55.16498 -51.35301 35972 ft 510 kts 246°
2026-04-25 01:58 55.13598 -51.46632 35969 ft 511 kts 246°
2026-04-25 01:58 55.10698 -51.57909 35962 ft 511 kts 246°
2026-04-25 01:59 55.07792 -51.69154 35944 ft 511 kts 246°
2026-04-25 01:59 55.04886 -51.80341 35954 ft 511 kts 246°
2026-04-25 02:00 55.01938 -51.91633 35950 ft 511 kts 246°
2026-04-25 02:00 54.99016 -52.02768 35952 ft 510 kts 246°
2026-04-25 02:01 54.96066 -52.13958 35948 ft 510 kts 246°
2026-04-25 02:01 54.93100 -52.25151 35956 ft 511 kts 246°
2026-04-25 02:02 54.90640 -52.34392 35959 ft 510 kts 246°
2026-04-25 02:02 54.87159 -52.47409 35956 ft 510 kts 246°
2026-04-25 02:03 54.84190 -52.58449 35952 ft 510 kts 246°
2026-04-25 02:03 54.81183 -52.69579 35951 ft 510 kts 245°
2026-04-25 02:04 54.78191 -52.80595 35949 ft 510 kts 245°
2026-04-25 02:04 54.75178 -52.91637 35944 ft 509 kts 245°
2026-04-25 02:05 54.72147 -53.02694 35944 ft 509 kts 245°
2026-04-25 02:05 54.69131 -53.13645 35959 ft 509 kts 245°
2026-04-25 02:06 54.66092 -53.24625 35955 ft 509 kts 245°
2026-04-25 02:06 54.63053 -53.35553 35962 ft 508 kts 245°
2026-04-25 02:07 54.59989 -53.46520 35948 ft 508 kts 245°
2026-04-25 02:07 54.56923 -53.57439 35946 ft 509 kts 245°
2026-04-25 02:08 54.53840 -53.68369 35956 ft 508 kts 244°
2026-04-25 02:08 54.50755 -53.79257 35966 ft 508 kts 244°
2026-04-25 02:09 54.47673 -53.90083 35963 ft 508 kts 244°
2026-04-25 02:09 54.44579 -54.00897 35972 ft 507 kts 244°
2026-04-25 02:10 54.41468 -54.11721 35962 ft 509 kts 244°
2026-04-25 02:10 54.38335 -54.22575 35969 ft 508 kts 244°
2026-04-25 02:11 54.35207 -54.33360 35970 ft 508 kts 244°
2026-04-25 02:11 54.32052 -54.44187 35967 ft 509 kts 244°
2026-04-25 02:12 54.28911 -54.54921 35971 ft 509 kts 244°
2026-04-25 02:12 54.25726 -54.65752 35962 ft 509 kts 243°
2026-04-25 02:13 54.22562 -54.76462 35965 ft 509 kts 243°
2026-04-25 02:13 54.19373 -54.87208 35961 ft 509 kts 243°
2026-04-25 02:14 54.16175 -54.97935 35954 ft 509 kts 243°
2026-04-25 02:14 54.12987 -55.08582 35970 ft 510 kts 243°
2026-04-25 02:15 54.09742 -55.19371 35973 ft 510 kts 243°
2026-04-25 02:15 54.06522 -55.30028 35970 ft 510 kts 243°
2026-04-25 02:16 54.03280 -55.40709 35971 ft 509 kts 243°
2026-04-25 02:16 54.00033 -55.51357 35968 ft 509 kts 243°
2026-04-25 02:17 53.96771 -55.62013 35984 ft 509 kts 243°
2026-04-25 02:17 53.93509 -55.72618 35980 ft 509 kts 242°
2026-04-25 02:18 53.90239 -55.83202 35981 ft 509 kts 242°
2026-04-25 02:18 53.86946 -55.93812 35968 ft 509 kts 242°
2026-04-25 02:19 53.83653 -56.04378 35978 ft 510 kts 242°
2026-04-25 02:19 53.80349 -56.14929 35978 ft 510 kts 242°
2026-04-25 02:20 53.77033 -56.25476 35977 ft 510 kts 242°
2026-04-25 02:20 53.73727 -56.35943 35975 ft 509 kts 242°
2026-04-25 02:21 53.70390 -56.46466 35982 ft 511 kts 242°
2026-04-25 02:21 53.67045 -56.56965 35978 ft 511 kts 242°
2026-04-25 02:22 53.63691 -56.67450 35987 ft 510 kts 241°
2026-04-25 02:22 53.60324 -56.77928 35987 ft 509 kts 242°
2026-04-25 02:23 53.56960 -56.88352 36000 ft 509 kts 242°
2026-04-25 02:23 53.53578 -56.98786 36000 ft 510 kts 242°
2026-04-25 02:24 53.50185 -57.09211 35992 ft 511 kts 242°
2026-04-25 02:24 53.46803 -57.19566 36009 ft 510 kts 243°
2026-04-25 02:25 53.43785 -57.30343 35999 ft 511 kts 246°
2026-04-25 02:25 53.40813 -57.41083 35999 ft 510 kts 246°
2026-04-25 02:26 53.37815 -57.51848 35999 ft 512 kts 246°
2026-04-25 02:26 53.34806 -57.62595 35996 ft 512 kts 246°
2026-04-25 02:27 53.31797 -57.73287 35981 ft 512 kts 245°
2026-04-25 02:27 53.28753 -57.84054 35976 ft 512 kts 245°
2026-04-25 02:28 53.25724 -57.94716 35978 ft 512 kts 245°
2026-04-25 02:28 53.22673 -58.05406 35986 ft 513 kts 245°
2026-04-25 02:29 53.19604 -58.16114 35974 ft 515 kts 245°
2026-04-25 02:29 53.16509 -58.26861 35977 ft 515 kts 245°
2026-04-25 02:30 53.13400 -58.37606 35979 ft 516 kts 245°
2026-04-25 02:30 53.10280 -58.48342 35970 ft 517 kts 245°
2026-04-25 02:31 53.07156 -58.59045 35961 ft 516 kts 245°
2026-04-25 02:31 53.04027 -58.69714 35955 ft 517 kts 244°
2026-04-25 02:32 53.00877 -58.80407 35963 ft 518 kts 244°
2026-04-25 02:32 52.97710 -58.91110 35948 ft 518 kts 244°
2026-04-25 02:33 52.94521 -59.01838 35961 ft 519 kts 245°
2026-04-25 02:33 52.91324 -59.12545 35941 ft 519 kts 244°
2026-04-25 02:34 52.88134 -59.23180 35947 ft 518 kts 245°
2026-04-25 02:34 52.84924 -59.33837 35952 ft 519 kts 244°
2026-04-25 02:35 52.81719 -59.44428 35958 ft 519 kts 244°
2026-04-25 02:35 52.78491 -59.55049 35963 ft 519 kts 244°
2026-04-25 02:36 52.75238 -59.65704 35971 ft 519 kts 244°
2026-04-25 02:36 52.71996 -59.76276 35983 ft 519 kts 244°
2026-04-25 02:37 52.68742 -59.86842 35974 ft 518 kts 243°
2026-04-25 02:37 52.65473 -59.97411 35986 ft 521 kts 244°
2026-04-25 02:38 52.62191 -60.07976 35983 ft 521 kts 243°
2026-04-25 02:38 52.58893 -60.18543 35989 ft 521 kts 244°
2026-04-25 02:39 52.55611 -60.29016 35994 ft 520 kts 243°
2026-04-25 02:39 52.52297 -60.39545 36000 ft 520 kts 243°
2026-04-25 02:39 52.50652 -60.44754 35731 ft 518 kts 243°
2026-04-25 02:40 52.49004 -60.49960 35964 ft 512 kts 243°
2026-04-25 02:40 52.45702 -60.60364 36001 ft 518 kts 243°
2026-04-25 02:41 52.42379 -60.70787 36003 ft 520 kts 243°
2026-04-25 02:41 52.39037 -60.81223 36008 ft 519 kts 242°
2026-04-25 02:42 52.35694 -60.91621 36012 ft 518 kts 242°
2026-04-25 02:42 52.32339 -61.02009 36019 ft 518 kts 242°
2026-04-25 02:43 52.28986 -61.12349 36010 ft 520 kts 242°
2026-04-25 02:43 52.25610 -61.22717 36017 ft 519 kts 242°
2026-04-25 02:44 52.22224 -61.33072 36013 ft 520 kts 242°
2026-04-25 02:44 52.18820 -61.43436 36013 ft 521 kts 242°
2026-04-25 02:45 52.15419 -61.53748 36012 ft 518 kts 242°
2026-04-25 02:45 52.12007 -61.64052 36008 ft 519 kts 242°
2026-04-25 02:46 52.08589 -61.74331 36014 ft 520 kts 241°
2026-04-25 02:46 52.05140 -61.84660 36015 ft 521 kts 241°
2026-04-25 02:47 52.01691 -61.94946 36021 ft 522 kts 241°
2026-04-25 02:47 51.98037 -62.05062 36018 ft 522 kts 238°
2026-04-25 02:48 51.94241 -62.15046 36026 ft 520 kts 238°
2026-04-25 02:48 51.90451 -62.24949 36013 ft 520 kts 238°
2026-04-25 02:49 51.86648 -62.34839 35997 ft 522 kts 238°
2026-04-25 02:49 51.82822 -62.44741 35987 ft 522 kts 238°
2026-04-25 02:50 51.78978 -62.54655 35990 ft 521 kts 238°
2026-04-25 02:50 51.75132 -62.64534 35998 ft 522 kts 238°
2026-04-25 02:51 51.71292 -62.74361 35987 ft 522 kts 237°
2026-04-25 02:51 51.69339 -62.79342 36095 ft 528 kts 237°
2026-04-25 02:51 51.67409 -62.84257 36050 ft 523 kts 237°
2026-04-25 02:52 51.63511 -62.94153 35993 ft 523 kts 237°
2026-04-25 02:52 51.59610 -63.04023 35993 ft 526 kts 236°
2026-04-25 02:53 51.55709 -63.13851 35998 ft 526 kts 237°
2026-04-25 02:53 51.51790 -63.23688 35988 ft 525 kts 237°
2026-04-25 02:54 51.47848 -63.33544 35992 ft 526 kts 237°
2026-04-25 02:54 51.43891 -63.43404 36000 ft 527 kts 236°
2026-04-25 02:55 51.39937 -63.53215 36001 ft 526 kts 236°
2026-04-25 02:55 51.35972 -63.63016 36006 ft 527 kts 237°
2026-04-25 02:56 51.32005 -63.72786 36007 ft 527 kts 236°
2026-04-25 02:56 51.28013 -63.82577 36001 ft 528 kts 236°
2026-04-25 02:57 51.24041 -63.92287 35993 ft 528 kts 235°
2026-04-25 02:57 51.20027 -64.02062 35991 ft 528 kts 236°
2026-04-25 02:58 51.16018 -64.11787 35997 ft 527 kts 235°
2026-04-25 02:58 51.12011 -64.21472 35993 ft 526 kts 235°
2026-04-25 02:59 51.07981 -64.31173 36003 ft 528 kts 235°
2026-04-25 02:59 51.03937 -64.40874 36016 ft 528 kts 236°
2026-04-25 03:00 50.99907 -64.50507 36015 ft 527 kts 235°
2026-04-25 03:00 50.95867 -64.60126 36016 ft 526 kts 236°
2026-04-25 03:01 50.91824 -64.69718 36029 ft 525 kts 234°
2026-04-25 03:01 50.87778 -64.79282 36032 ft 524 kts 234°
2026-04-25 03:02 50.83717 -64.88844 36013 ft 523 kts 235°
2026-04-25 03:02 50.79682 -64.98313 36015 ft 521 kts 235°
2026-04-25 03:03 50.75647 -65.07746 36019 ft 523 kts 235°
2026-04-25 03:03 50.71606 -65.17158 36036 ft 520 kts 235°
2026-04-25 03:04 50.67544 -65.26588 36058 ft 520 kts 235°
2026-04-25 03:04 50.63490 -65.35963 36062 ft 521 kts 235°
2026-04-25 03:05 50.57389 -65.50013 36040 ft 518 kts 235°
2026-04-25 03:05 50.53342 -65.59290 36044 ft 520 kts 235°
2026-04-25 03:06 50.49261 -65.68611 36046 ft 517 kts 234°
2026-04-25 03:06 50.45185 -65.77887 36046 ft 519 kts 234°
2026-04-25 03:07 50.41093 -65.87167 36050 ft 519 kts 235°
2026-04-25 03:07 50.37003 -65.96413 36062 ft 518 kts 234°
2026-04-25 03:08 50.32906 -66.05638 36068 ft 518 kts 235°
2026-04-25 03:08 50.28829 -66.14788 36085 ft 517 kts 235°
2026-04-25 03:09 50.24712 -66.23998 36094 ft 515 kts 234°
2026-04-25 03:09 50.20246 -66.32667 36100 ft 517 kts 230°
2026-04-25 03:10 50.15644 -66.41202 36097 ft 517 kts 229°
2026-04-25 03:10 50.11017 -66.49699 36092 ft 516 kts 229°
2026-04-25 03:11 50.06374 -66.58176 36092 ft 515 kts 230°
2026-04-25 03:11 50.01649 -66.66769 36085 ft 515 kts 229°
2026-04-25 03:12 49.96730 -66.75681 36085 ft 514 kts 229°
2026-04-25 03:12 49.91831 -66.84525 36081 ft 515 kts 229°
2026-04-25 03:13 49.87162 -66.92924 36074 ft 515 kts 229°
2026-04-25 03:13 49.82495 -67.01294 36076 ft 515 kts 229°
2026-04-25 03:14 49.77851 -67.09597 36077 ft 514 kts 229°
2026-04-25 03:14 49.73169 -67.17941 36062 ft 516 kts 229°
2026-04-25 03:15 49.68476 -67.26276 36066 ft 515 kts 229°
2026-04-25 03:15 49.63514 -67.35061 36059 ft 515 kts 229°
2026-04-25 03:16 49.58828 -67.43330 36059 ft 514 kts 230°
2026-04-25 03:16 49.54140 -67.51575 36046 ft 514 kts 230°
2026-04-25 03:17 49.49441 -67.59815 36048 ft 514 kts 230°
2026-04-25 03:17 49.44730 -67.68050 36061 ft 514 kts 229°
2026-04-25 03:18 49.39996 -67.76300 36065 ft 514 kts 229°
2026-04-25 03:18 49.35308 -67.84441 36069 ft 514 kts 229°
2026-04-25 03:19 49.30588 -67.92614 36079 ft 514 kts 229°
2026-04-25 03:19 49.25844 -68.00804 36093 ft 514 kts 229°
2026-04-25 03:20 49.21133 -68.08910 36102 ft 514 kts 229°
2026-04-25 03:20 49.16392 -68.17041 36097 ft 513 kts 229°
2026-04-25 03:21 49.11099 -68.24237 36114 ft 514 kts 215°
2026-04-25 03:21 49.05199 -68.30443 36097 ft 514 kts 214°
2026-04-25 03:22 48.99312 -68.36520 36100 ft 514 kts 214°
2026-04-25 03:22 48.93389 -68.42570 36100 ft 515 kts 214°
2026-04-25 03:23 48.87463 -68.48589 36086 ft 516 kts 214°
2026-04-25 03:23 48.81515 -68.54608 36091 ft 515 kts 214°
2026-04-25 03:24 48.75574 -68.60600 36096 ft 514 kts 214°
2026-04-25 03:24 48.69630 -68.66578 36092 ft 514 kts 214°
2026-04-25 03:25 48.63720 -68.72502 36082 ft 514 kts 214°
2026-04-25 03:25 48.57768 -68.78453 36091 ft 514 kts 214°
2026-04-25 03:26 48.51831 -68.84372 36102 ft 515 kts 214°
2026-04-25 03:26 48.45846 -68.90320 36089 ft 514 kts 214°
2026-04-25 03:27 48.39922 -68.96191 36100 ft 513 kts 214°
2026-04-25 03:27 48.33974 -69.02071 36086 ft 513 kts 214°
2026-04-25 03:28 48.28027 -69.07931 36096 ft 513 kts 214°
2026-04-25 03:28 48.22075 -69.13781 36091 ft 512 kts 214°
2026-04-25 03:29 48.16170 -69.19567 36096 ft 512 kts 214°
2026-04-25 03:29 48.10220 -69.25382 36102 ft 513 kts 215°
2026-04-25 03:30 48.04250 -69.31201 36088 ft 513 kts 215°
2026-04-25 03:30 47.98304 -69.36979 36105 ft 512 kts 215°
2026-04-25 03:31 47.92337 -69.42760 36091 ft 511 kts 215°
2026-04-25 03:31 47.86373 -69.48524 36102 ft 512 kts 215°
2026-04-25 03:32 47.80436 -69.54247 36096 ft 511 kts 215°
2026-04-25 03:32 47.74864 -69.60637 36110 ft 507 kts 230°
2026-04-25 03:33 47.70336 -69.68562 36094 ft 505 kts 233°
2026-04-25 03:33 47.65877 -69.76578 36100 ft 503 kts 233°
2026-04-25 03:34 47.61458 -69.84532 36091 ft 503 kts 234°
2026-04-25 03:34 47.57029 -69.92491 36084 ft 503 kts 234°
2026-04-25 03:35 47.52585 -70.00459 36095 ft 502 kts 234°
2026-04-25 03:35 47.48154 -70.08381 36094 ft 502 kts 234°
2026-04-25 03:36 47.43697 -70.16325 36081 ft 502 kts 234°
2026-04-25 03:36 47.39272 -70.24150 36082 ft 501 kts 234°
2026-04-25 03:37 47.34817 -70.32005 36091 ft 501 kts 234°
2026-04-25 03:37 47.30347 -70.39867 36094 ft 501 kts 234°
2026-04-25 03:38 47.25897 -70.47668 36099 ft 500 kts 234°
2026-04-25 03:38 47.21419 -70.55494 36091 ft 501 kts 234°
2026-04-25 03:39 47.16938 -70.63305 36063 ft 499 kts 234°
2026-04-25 03:39 47.12469 -70.71074 36061 ft 500 kts 234°
2026-04-25 03:40 47.07996 -70.78826 36060 ft 500 kts 234°
2026-04-25 03:40 47.03525 -70.86536 36069 ft 498 kts 234°
2026-04-25 03:41 46.99057 -70.94202 36090 ft 497 kts 234°
2026-04-25 03:41 46.94564 -71.01890 36093 ft 499 kts 234°
2026-04-25 03:42 46.90062 -71.09572 36092 ft 499 kts 235°
2026-04-25 03:42 46.85558 -71.17232 36083 ft 498 kts 235°
2026-04-25 03:43 46.81049 -71.24884 36093 ft 499 kts 235°
2026-04-25 03:43 46.76123 -71.32037 36101 ft 504 kts 228°
2026-04-25 03:44 46.70928 -71.38879 36101 ft 505 kts 228°
2026-04-25 03:44 46.65713 -71.45699 36096 ft 505 kts 228°
2026-04-25 03:45 46.60530 -71.52448 36089 ft 505 kts 229°
2026-04-25 03:45 46.55336 -71.59190 36085 ft 505 kts 229°
2026-04-25 03:46 46.50078 -71.65994 36082 ft 507 kts 228°
2026-04-25 03:46 46.44831 -71.72762 36080 ft 506 kts 228°
2026-04-25 03:47 46.39647 -71.79542 36075 ft 501 kts 233°
2026-04-25 03:47 46.35260 -71.87225 36070 ft 495 kts 239°
2026-04-25 03:48 46.31013 -71.94974 36088 ft 495 kts 239°
2026-04-25 03:48 46.26754 -72.02734 36093 ft 493 kts 239°
2026-04-25 03:49 46.22483 -72.10502 36109 ft 494 kts 239°
2026-04-25 03:49 46.18255 -72.18170 36073 ft 492 kts 239°
2026-04-25 03:50 46.13987 -72.25891 36095 ft 494 kts 240°
2026-04-25 03:50 46.09722 -72.33580 36099 ft 489 kts 240°
2026-04-25 03:51 46.05504 -72.41172 36117 ft 490 kts 240°
2026-04-25 03:51 46.01223 -72.48851 36090 ft 490 kts 240°
2026-04-25 03:52 45.96976 -72.56388 36085 ft 489 kts 239°
2026-04-25 03:52 45.93188 -72.64317 36093 ft 481 kts 246°
2026-04-25 03:53 45.89582 -72.72328 36084 ft 481 kts 245°
2026-04-25 03:53 45.85888 -72.80344 36079 ft 484 kts 245°
2026-04-25 03:54 45.82164 -72.88319 36078 ft 483 kts 244°
2026-04-25 03:54 45.78419 -72.96296 36076 ft 482 kts 244°
2026-04-25 03:55 45.74679 -73.04228 36079 ft 481 kts 244°
2026-04-25 03:55 45.71003 -73.12154 36081 ft 476 kts 249°
2026-04-25 03:56 45.68298 -73.20562 36075 ft 467 kts 255°
2026-04-25 03:56 45.65719 -73.28994 36081 ft 466 kts 255°
2026-04-25 03:57 45.63120 -73.37440 36083 ft 465 kts 255°
2026-04-25 03:57 45.60509 -73.45885 36093 ft 466 kts 255°
2026-04-25 03:58 45.57904 -73.54275 36088 ft 464 kts 255°
2026-04-25 03:58 45.55298 -73.62642 36089 ft 464 kts 255°
2026-04-25 03:59 45.52677 -73.71031 36092 ft 465 kts 255°
2026-04-25 03:59 45.50039 -73.79442 36096 ft 463 kts 255°
2026-04-25 04:00 45.47401 -73.87789 36089 ft 464 kts 253°
2026-04-25 04:00 45.45772 -73.91786 36098 ft 477 kts 244°
2026-04-25 04:00 45.43669 -73.95467 36094 ft 490 kts 235°
2026-04-25 04:01 45.38715 -74.02094 36083 ft 490 kts 232°
2026-04-25 04:01 45.36393 -74.05617 36088 ft 479 kts 241°
2026-04-25 04:01 45.34534 -74.09427 36086 ft 470 kts 248°
2026-04-25 04:02 45.31105 -74.17283 36067 ft 471 kts 248°
2026-04-25 04:02 45.27696 -74.25133 36068 ft 464 kts 249°
2026-04-25 04:03 45.24324 -74.32933 36069 ft 468 kts 249°
2026-04-25 04:03 45.20936 -74.40753 36046 ft 466 kts 249°
2026-04-25 04:04 45.17530 -74.48575 36050 ft 472 kts 249°
2026-04-25 04:04 45.14104 -74.56397 36049 ft 464 kts 249°
2026-04-25 04:05 45.10793 -74.64140 36050 ft 460 kts 252°
2026-04-25 04:05 45.07658 -74.72105 36055 ft 464 kts 251°
2026-04-25 04:06 45.04541 -74.79954 36067 ft 460 kts 251°
2026-04-25 04:06 45.01409 -74.87821 36068 ft 459 kts 252°
2026-04-25 04:07 44.98225 -74.95680 36070 ft 463 kts 252°
2026-04-25 04:07 44.96899 -74.99687 36068 ft 445 kts 261°
2026-04-25 04:07 44.95882 -75.03729 36056 ft 441 kts 261°
2026-04-25 04:08 44.93732 -75.11852 36045 ft 441 kts 260°
2026-04-25 04:08 44.91529 -75.19894 36050 ft 443 kts 259°
2026-04-25 04:09 44.89275 -75.27981 36025 ft 444 kts 259°
2026-04-25 04:09 44.87008 -75.36033 36020 ft 443 kts 259°
2026-04-25 04:10 44.84743 -75.44046 36014 ft 443 kts 259°
2026-04-25 04:10 44.82554 -75.52150 36016 ft 443 kts 261°
2026-04-25 04:11 44.79369 -75.64209 36000 ft 437 kts 261°
2026-04-25 04:12 44.77252 -75.72217 36016 ft 440 kts 260°
2026-04-25 04:12 44.75113 -75.80258 36016 ft 441 kts 260°
2026-04-25 04:13 44.72487 -75.88152 36019 ft 461 kts 246°
2026-04-25 04:13 44.70476 -75.91747 36014 ft 474 kts 237°
2026-04-25 04:13 44.68040 -75.94901 36005 ft 485 kts 228°
2026-04-25 04:13 44.65225 -75.97549 36029 ft 501 kts 219°
2026-04-25 04:14 44.62023 -75.99669 36000 ft 512 kts 209°
2026-04-25 04:14 44.54968 -76.01874 36009 ft 536 kts 191°
2026-04-25 04:15 44.47469 -76.01662 35992 ft 540 kts 185°
2026-04-25 04:15 44.39999 -76.01877 35988 ft 537 kts 189°
2026-04-25 04:16 44.32575 -76.02530 35990 ft 535 kts 193°
2026-04-25 04:16 44.25235 -76.03621 35996 ft 531 kts 193°
2026-04-25 04:17 44.17918 -76.04747 35987 ft 530 kts 194°
2026-04-25 04:17 44.10614 -76.05884 35994 ft 528 kts 194°
2026-04-25 04:18 44.03312 -76.07025 35992 ft 530 kts 193°
2026-04-25 04:18 43.96001 -76.08164 35994 ft 529 kts 194°
2026-04-25 04:19 43.88705 -76.09297 35981 ft 527 kts 194°
2026-04-25 04:19 43.81424 -76.10429 35960 ft 527 kts 193°
2026-04-25 04:20 43.74136 -76.11558 35960 ft 528 kts 193°
2026-04-25 04:20 43.66788 -76.12691 35962 ft 527 kts 193°
2026-04-25 04:21 43.59531 -76.13809 35969 ft 528 kts 194°
2026-04-25 04:21 43.52280 -76.14925 35956 ft 525 kts 193°
2026-04-25 04:22 43.45009 -76.16039 35944 ft 527 kts 193°
2026-04-25 04:22 43.37772 -76.17145 35958 ft 525 kts 193°
2026-04-25 04:23 43.30618 -76.18705 35964 ft 513 kts 204°
2026-04-25 04:23 43.27305 -76.20357 35967 ft 501 kts 213°
2026-04-25 04:23 43.24306 -76.22592 35968 ft 488 kts 223°
2026-04-25 04:23 43.21628 -76.25391 35962 ft 477 kts 232°
2026-04-25 04:24 43.19359 -76.28599 35972 ft 468 kts 238°
2026-04-25 04:24 43.15685 -76.35683 35951 ft 447 kts 253°
2026-04-25 04:25 43.13454 -76.43507 35944 ft 440 kts 262°
2026-04-25 04:25 43.11835 -76.51495 35930 ft 432 kts 264°
2026-04-25 04:26 43.10462 -76.59448 35936 ft 434 kts 265°
2026-04-25 04:26 43.09038 -76.67435 35928 ft 437 kts 258°
2026-04-25 04:26 43.07782 -76.71252 35946 ft 449 kts 250°
2026-04-25 04:27 43.06270 -76.74965 35935 ft 451 kts 249°
2026-04-25 04:27 43.03221 -76.82414 35928 ft 449 kts 249°
2026-04-25 04:28 43.00154 -76.89840 35921 ft 450 kts 249°
2026-04-25 04:28 42.97073 -76.97255 35924 ft 449 kts 249°
2026-04-25 04:29 42.93992 -77.04642 35920 ft 448 kts 249°
2026-04-25 04:29 42.90925 -77.11980 35924 ft 450 kts 248°
2026-04-25 04:30 42.87839 -77.19393 35910 ft 445 kts 253°
2026-04-25 04:30 42.85335 -77.27048 35913 ft 445 kts 253°
2026-04-25 04:31 42.82753 -77.34644 35911 ft 445 kts 252°
2026-04-25 04:31 42.80121 -77.42258 35900 ft 446 kts 252°
2026-04-25 04:32 42.77467 -77.49863 35896 ft 446 kts 252°
2026-04-25 04:32 42.74800 -77.57466 35886 ft 446 kts 252°
2026-04-25 04:33 42.72133 -77.65039 35889 ft 446 kts 251°
2026-04-25 04:33 42.69460 -77.72607 35888 ft 445 kts 251°
2026-04-25 04:34 42.66775 -77.80187 35901 ft 447 kts 251°
2026-04-25 04:34 42.64081 -77.87771 35899 ft 446 kts 251°
2026-04-25 04:35 42.61386 -77.95335 35885 ft 446 kts 251°
2026-04-25 04:35 42.58699 -78.02863 35871 ft 447 kts 250°
2026-04-25 04:36 42.55973 -78.10474 35868 ft 448 kts 250°
2026-04-25 04:36 42.53275 -78.17979 35864 ft 445 kts 250°
2026-04-25 04:37 42.50568 -78.25500 35862 ft 446 kts 250°
2026-04-25 04:37 42.47851 -78.33027 35866 ft 445 kts 250°
2026-04-25 04:38 42.45148 -78.40494 35862 ft 446 kts 250°
2026-04-25 04:38 42.42422 -78.48006 35863 ft 445 kts 250°
2026-04-25 04:39 42.39695 -78.55500 35853 ft 444 kts 250°
2026-04-25 04:39 42.36966 -78.62978 35846 ft 444 kts 250°
2026-04-25 04:40 42.34238 -78.70433 35852 ft 445 kts 250°
2026-04-25 04:40 42.31514 -78.77858 35846 ft 445 kts 249°
2026-04-25 04:41 42.28770 -78.85317 35849 ft 444 kts 249°
2026-04-25 04:41 42.26015 -78.92791 35840 ft 443 kts 249°
2026-04-25 04:42 42.23280 -79.00189 35838 ft 445 kts 249°
2026-04-25 04:42 42.20524 -79.07622 35854 ft 444 kts 249°
2026-04-25 04:43 42.18028 -79.15148 35861 ft 437 kts 257°
2026-04-25 04:43 42.16074 -79.22874 35859 ft 437 kts 256°
2026-04-25 04:44 42.14090 -79.30597 35852 ft 436 kts 256°
2026-04-25 04:44 42.12098 -79.38311 35855 ft 438 kts 256°
2026-04-25 04:45 42.10097 -79.46020 35830 ft 436 kts 256°
2026-04-25 04:45 42.08097 -79.53693 35824 ft 435 kts 255°
2026-04-25 04:46 42.06104 -79.61319 35818 ft 435 kts 256°
2026-04-25 04:46 42.04098 -79.68969 35837 ft 436 kts 255°
2026-04-25 04:47 42.02083 -79.76630 35836 ft 435 kts 255°
2026-04-25 04:47 42.00066 -79.84270 35834 ft 434 kts 255°
2026-04-25 04:48 41.98053 -79.91875 35829 ft 432 kts 255°
2026-04-25 04:48 41.96038 -79.99464 35830 ft 433 kts 254°
2026-04-25 04:49 41.94018 -80.07045 35830 ft 433 kts 255°
2026-04-25 04:49 41.91994 -80.14621 35834 ft 435 kts 254°
2026-04-25 04:50 41.89945 -80.22263 35829 ft 434 kts 254°
2026-04-25 04:50 41.87918 -80.29801 35827 ft 433 kts 254°
2026-04-25 04:51 41.85873 -80.37386 35822 ft 434 kts 254°
2026-04-25 04:51 41.83822 -80.44965 35817 ft 433 kts 254°
2026-04-25 04:52 41.81769 -80.52530 35818 ft 434 kts 253°
2026-04-25 04:52 41.79666 -80.60110 35829 ft 434 kts 251°
2026-04-25 04:53 41.77377 -80.67584 35842 ft 435 kts 251°
2026-04-25 04:53 41.75102 -80.75020 35846 ft 434 kts 251°
2026-04-25 04:54 41.72821 -80.82460 35839 ft 432 kts 250°
2026-04-25 04:54 41.70544 -80.89865 35840 ft 434 kts 250°
2026-04-25 04:55 41.68254 -80.97292 35833 ft 433 kts 250°
2026-04-25 04:55 41.65960 -81.04710 35821 ft 434 kts 250°
2026-04-25 04:56 41.63652 -81.12154 35823 ft 434 kts 250°
2026-04-25 04:56 41.61268 -81.19823 35828 ft 434 kts 250°
2026-04-25 04:57 41.58953 -81.27249 35840 ft 434 kts 250°
2026-04-25 04:57 41.56632 -81.34673 35839 ft 432 kts 250°
2026-04-25 04:58 41.54322 -81.42042 35839 ft 433 kts 250°
2026-04-25 04:58 41.52015 -81.49378 35835 ft 432 kts 250°
2026-04-25 04:59 41.49685 -81.56766 35834 ft 431 kts 250°
2026-04-25 04:59 41.47367 -81.64099 35829 ft 431 kts 250°
2026-04-25 05:00 41.45051 -81.71408 35831 ft 430 kts 249°
2026-04-25 05:00 41.42718 -81.78748 35831 ft 429 kts 249°
2026-04-25 05:01 41.40385 -81.86066 35837 ft 430 kts 249°
2026-04-25 05:01 41.38053 -81.93362 35835 ft 430 kts 249°
2026-04-25 05:02 41.35284 -82.00369 35850 ft 435 kts 236°
2026-04-25 05:02 41.30858 -82.05917 35844 ft 444 kts 217°
2026-04-25 05:03 41.25210 -82.09380 35838 ft 451 kts 205°
2026-04-25 05:03 41.19323 -82.12259 35820 ft 452 kts 205°
2026-04-25 05:04 41.13416 -82.15102 35812 ft 452 kts 205°
2026-04-25 05:04 41.07507 -82.17927 35809 ft 450 kts 205°
2026-04-25 05:05 41.01622 -82.20727 35815 ft 450 kts 205°
2026-04-25 05:05 40.95741 -82.23518 35817 ft 451 kts 205°
2026-04-25 05:06 40.89835 -82.26314 35826 ft 452 kts 205°
2026-04-25 05:06 40.83939 -82.29099 35825 ft 450 kts 205°
2026-04-25 05:07 40.78047 -82.31879 35830 ft 452 kts 205°
2026-04-25 05:07 40.72172 -82.34643 35832 ft 449 kts 205°
2026-04-25 05:08 40.66279 -82.37411 35828 ft 450 kts 205°
2026-04-25 05:08 40.60393 -82.40170 35825 ft 450 kts 205°
2026-04-25 05:09 40.54496 -82.42930 35814 ft 449 kts 205°
2026-04-25 05:09 40.48618 -82.45676 35813 ft 450 kts 205°
2026-04-25 05:10 40.42730 -82.48422 35813 ft 450 kts 205°
2026-04-25 05:10 40.36826 -82.51169 35810 ft 450 kts 205°
2026-04-25 05:11 40.30920 -82.53912 35812 ft 451 kts 205°
2026-04-25 05:11 40.25053 -82.56632 35814 ft 450 kts 205°
2026-04-25 05:12 40.16300 -82.60959 35815 ft 444 kts 213°
2026-04-25 05:12 40.11518 -82.65784 35843 ft 436 kts 230°
2026-04-25 05:13 40.07649 -82.71896 35834 ft 434 kts 233°
2026-04-25 05:13 40.03878 -82.78024 35834 ft 433 kts 233°
2026-04-25 05:14 40.00111 -82.84092 35838 ft 432 kts 233°
2026-04-25 05:15 39.94395 -82.93307 35837 ft 433 kts 233°
2026-04-25 05:15 39.90585 -82.99438 35845 ft 433 kts 233°
2026-04-25 05:16 39.86774 -83.05562 35851 ft 433 kts 233°
2026-04-25 05:16 39.82993 -83.11624 35852 ft 431 kts 233°
2026-04-25 05:17 39.79268 -83.17657 35844 ft 429 kts 237°
2026-04-25 05:17 39.76480 -83.24490 35844 ft 428 kts 245°
2026-04-25 05:18 39.73796 -83.31435 35840 ft 428 kts 244°
2026-04-25 05:18 39.71019 -83.38348 35841 ft 427 kts 243°
2026-04-25 05:19 39.68232 -83.45155 35833 ft 427 kts 243°
2026-04-25 05:19 39.66048 -83.52325 35833 ft 426 kts 247°
2026-04-25 05:20 39.62800 -83.58707 35837 ft 430 kts 229°
2026-04-25 05:20 39.58197 -83.63728 35826 ft 430 kts 224°
2026-04-25 05:21 39.53907 -83.69049 35847 ft 427 kts 228°
2026-04-25 05:21 39.49818 -83.74679 35855 ft 426 kts 230°
2026-04-25 05:22 39.45889 -83.80325 35861 ft 425 kts 230°
2026-04-25 05:22 39.41966 -83.86078 35857 ft 427 kts 230°
2026-04-25 05:23 39.38053 -83.91855 35854 ft 426 kts 231°
2026-04-25 05:23 39.34180 -83.97590 35846 ft 425 kts 230°
2026-04-25 05:24 39.30293 -84.03342 35834 ft 424 kts 231°
2026-04-25 05:24 39.26423 -84.09064 35839 ft 425 kts 230°
2026-04-25 05:25 39.22618 -84.14848 35843 ft 423 kts 236°
2026-04-25 05:25 39.20026 -84.21614 35861 ft 424 kts 247°
2026-04-25 05:26 39.17650 -84.28571 35860 ft 424 kts 245°
2026-04-25 05:26 39.15142 -84.35394 35859 ft 422 kts 244°
2026-04-25 05:27 39.12579 -84.42138 35862 ft 423 kts 244°
2026-04-25 05:27 39.09996 -84.48832 35847 ft 406 kts 243°
2026-04-25 05:27 39.08746 -84.52050 35856 ft 392 kts 243°
2026-04-25 05:28 39.07559 -84.55097 35846 ft 378 kts 243°
2026-04-25 05:28 39.06398 -84.58070 35847 ft 363 kts 243°
2026-04-25 05:28 39.05284 -84.60922 35839 ft 346 kts 243°
2026-04-25 05:29 39.03134 -84.66402 35872 ft 342 kts 242°
2026-04-25 05:29 39.00812 -84.72035 35873 ft 350 kts 235°
2026-04-25 05:29 38.99226 -84.74446 35880 ft 349 kts 224°
2026-04-25 05:30 38.97222 -84.76474 35097 ft 364 kts 217°
2026-04-25 05:30 38.95045 -84.78397 34289 ft 366 kts 219°
2026-04-25 05:30 38.92994 -84.80425 33578 ft 368 kts 220°
2026-04-25 05:30 38.90957 -84.82557 32912 ft 371 kts 222°
2026-04-25 05:31 38.88948 -84.84729 32252 ft 374 kts 223°
2026-04-25 05:31 38.86909 -84.86983 31589 ft 376 kts 223°
2026-04-25 05:31 38.84916 -84.89215 30940 ft 378 kts 223°
2026-04-25 05:31 38.82893 -84.91497 30283 ft 380 kts 223°
2026-04-25 05:32 38.80854 -84.93810 29624 ft 382 kts 223°
2026-04-25 05:32 38.78853 -84.96085 28981 ft 383 kts 223°
2026-04-25 05:32 38.76788 -84.98434 28324 ft 384 kts 223°
2026-04-25 05:32 38.74689 -85.00826 27655 ft 385 kts 223°
2026-04-25 05:33 38.72605 -85.03198 26992 ft 386 kts 223°
2026-04-25 05:33 38.70483 -85.05615 26315 ft 386 kts 223°
2026-04-25 05:33 38.68340 -85.08051 25638 ft 387 kts 223°
2026-04-25 05:33 38.66177 -85.10510 24951 ft 387 kts 223°
2026-04-25 05:34 38.64070 -85.12904 24289 ft 387 kts 223°
2026-04-25 05:34 38.61926 -85.15337 23625 ft 386 kts 223°
2026-04-25 05:34 38.59769 -85.17783 22935 ft 387 kts 223°
2026-04-25 05:34 38.57650 -85.20185 22245 ft 387 kts 223°
2026-04-25 05:35 38.55473 -85.22595 21543 ft 387 kts 219°
2026-04-25 05:35 38.53050 -85.24438 20854 ft 389 kts 202°
2026-04-25 05:35 38.50256 -85.25280 20182 ft 391 kts 188°
2026-04-25 05:35 38.47469 -85.25098 19536 ft 394 kts 174°
2026-04-25 05:36 38.44644 -85.24543 18860 ft 393 kts 175°
2026-04-25 05:36 38.41801 -85.23988 18170 ft 391 kts 174°
2026-04-25 05:36 38.38989 -85.23540 17481 ft 386 kts 182°
2026-04-25 05:36 38.36351 -85.24037 16841 ft 377 kts 202°
2026-04-25 05:37 38.33998 -85.25697 16187 ft 370 kts 221°
2026-04-25 05:37 38.32214 -85.28270 15527 ft 366 kts 234°
2026-04-25 05:37 38.30597 -85.31027 14835 ft 364 kts 234°
2026-04-25 05:37 38.29022 -85.33685 14155 ft 363 kts 234°
2026-04-25 05:38 38.27410 -85.36366 13456 ft 361 kts 234°
2026-04-25 05:38 38.25877 -85.38921 12773 ft 359 kts 234°
2026-04-25 05:38 38.24335 -85.41466 12086 ft 358 kts 234°
2026-04-25 05:38 38.22817 -85.43957 11429 ft 356 kts 233°
2026-04-25 05:39 38.21014 -85.46194 10734 ft 357 kts 218°
2026-04-25 05:39 38.18926 -85.47922 10105 ft 355 kts 217°
2026-04-25 05:39 38.16925 -85.49689 9961 ft 338 kts 217°
2026-04-25 05:39 38.14977 -85.51357 9957 ft 319 kts 217°
2026-04-25 05:40 38.13140 -85.52934 9957 ft 303 kts 217°
2026-04-25 05:40 38.11424 -85.54402 9956 ft 288 kts 217°
2026-04-25 05:40 38.09765 -85.55823 9957 ft 274 kts 217°
2026-04-25 05:40 38.08166 -85.57183 9879 ft 264 kts 217°
2026-04-25 05:41 38.06543 -85.58407 9604 ft 266 kts 202°
2026-04-25 05:41 38.04662 -85.58672 9392 ft 267 kts 173°
2026-04-25 05:41 38.02842 -85.58064 9174 ft 266 kts 165°
2026-04-25 05:41 38.00986 -85.57320 8916 ft 265 kts 165°
2026-04-25 05:42 37.99086 -85.56596 8653 ft 264 kts 166°
2026-04-25 05:42 37.97199 -85.55886 8389 ft 263 kts 166°
2026-04-25 05:42 37.95340 -85.55188 8123 ft 262 kts 166°
2026-04-25 05:42 37.93451 -85.54482 7852 ft 261 kts 166°
2026-04-25 05:43 37.91578 -85.53790 7611 ft 259 kts 166°
2026-04-25 05:43 37.89765 -85.53128 7352 ft 257 kts 166°
2026-04-25 05:43 37.88038 -85.52493 7062 ft 258 kts 166°
2026-04-25 05:43 37.86266 -85.51842 6759 ft 258 kts 166°
2026-04-25 05:44 37.84433 -85.51382 6444 ft 255 kts 185°
2026-04-25 05:44 37.82687 -85.52044 6166 ft 246 kts 218°
2026-04-25 05:44 37.81548 -85.53719 5894 ft 237 kts 249°
2026-04-25 05:44 37.80998 -85.55769 5612 ft 236 kts 256°
2026-04-25 05:45 37.80518 -85.57832 5229 ft 241 kts 256°
2026-04-25 05:45 37.80042 -85.59959 4756 ft 248 kts 260°
2026-04-25 05:45 37.80087 -85.62220 4280 ft 249 kts 290°
2026-04-25 05:45 37.81061 -85.64102 3838 ft 250 kts 321°
2026-04-25 05:46 37.82652 -85.65065 3395 ft 253 kts 349°
2026-04-25 05:46 37.84418 -85.64992 3024 ft 255 kts
2026-04-25 05:46 37.86143 -85.64665 2968 ft 242 kts
2026-04-25 05:46 37.87794 -85.64759 2972 ft 225 kts 344°
2026-04-25 05:47 37.89265 -85.65273 2969 ft 214 kts 344°
2026-04-25 05:47 37.90669 -85.65728 2994 ft 201 kts 345°
2026-04-25 05:47 37.92033 -85.66165 3017 ft 182 kts 345°
2026-04-25 05:47 37.93255 -85.66555 2989 ft 168 kts 345°
2026-04-25 05:48 37.94419 -85.66935 2993 ft 175 kts 344°
2026-04-25 05:48 37.95619 -85.67333 2987 ft 177 kts 344°
2026-04-25 05:48 37.96811 -85.67724 2967 ft 176 kts 344°
2026-04-25 05:48 37.97986 -85.68109 2967 ft 176 kts 345°
2026-04-25 05:49 37.99192 -85.68504 2968 ft 177 kts 345°
2026-04-25 05:49 38.00384 -85.68894 2967 ft 175 kts 345°
2026-04-25 05:49 38.01564 -85.69279 2973 ft 173 kts 345°
2026-04-25 05:49 38.02712 -85.69653 2950 ft 165 kts 345°
2026-04-25 05:50 38.03817 -85.70013 2855 ft 165 kts 345°
2026-04-25 05:50 38.04914 -85.70372 2631 ft 162 kts 345°
2026-04-25 05:50 38.05998 -85.70725 2423 ft 162 kts 345°
2026-04-25 05:50 38.07079 -85.71079 2205 ft 157 kts 345°
2026-04-25 05:51 38.08119 -85.71418 2030 ft 150 kts 345°
2026-04-25 05:51 38.09116 -85.71743 1819 ft 148 kts 345°
2026-04-25 05:51 38.10109 -85.72067 1626 ft 147 kts 344°
2026-04-25 05:51 38.11107 -85.72392 1434 ft 149 kts 344°
2026-04-25 05:52 38.12133 -85.72728 1240 ft 153 kts 344°
2026-04-25 05:52 38.13177 -85.73070 1036 ft 156 kts 344°
2026-04-25 05:52 38.14245 -85.73419 823 ft 160 kts 344°
2026-04-25 05:52 38.15328 -85.73774 606 ft 161 kts 344°
2026-04-25 05:53 38.16409 -85.74129 466 ft 152 kts 344°
2026-04-25 05:53 38.17175 -85.74379 478 ft 74 kts 345°
2026-04-25 05:53 38.17482 -85.74482 481 ft 31 kts 345°
2026-04-25 05:53 38.17688 -85.74551 484 ft 30 kts 346°
2026-04-25 05:54 38.17815 -85.74591 484 ft 1 kts 346°
2026-04-25 05:54 38.17841 -85.74591 484 ft 4 kts 12°
2026-04-25 05:54 38.17844 -85.74532 484 ft 6 kts 110°
2026-04-25 05:55 38.17825 -85.74470 484 ft 8 kts 111°
2026-04-25 05:55 38.17801 -85.74390 484 ft 10 kts 110°
2026-04-25 05:55 38.17774 -85.74298 484 ft 9 kts 110°
2026-04-25 05:55 38.17752 -85.74231 484 ft 7 kts 114°
2026-04-25 05:56 38.17712 -85.74182 484 ft 8 kts 152°
2026-04-25 05:56 38.17675 -85.74159 484 ft 4 kts 154°
2026-04-25 05:56 38.17643 -85.74139 484 ft 3 kts 154°
2026-04-25 05:56 38.17635 -85.74135 483 ft 0 kts 154°